Location: Unspecified
(0.0000°N, 0.0000°E)
Time: 22:02:43
(UTC+00:00)

MERIDIAN 4 - Visible Passes

Search period start: 04 June 2023 00:00
Search period end: 14 June 2023 00:00
Orbit: 1074 x 39288 km, 62.2° (Epoch: 03 June)

Date Brightness Start Highest point End Pass type
(mag) Time Alt. Az. Time Alt. Az. Time Alt. Az.
04 Jun ? 19:09:48 10° E 22:35:57 17° NNE 04:33:51 10° NNE visible
05 Jun ? 19:05:09 10° E 22:31:12 17° NNE 04:31:07 10° NNE visible
06 Jun ? 19:00:31 10° E 22:26:28 17° NNE 04:28:22 10° NNE visible
07 Jun ? 18:55:54 10° E 22:21:43 17° NNE 04:25:36 10° NNE visible
08 Jun ? 18:51:18 10° E 22:16:57 17° NNE 04:22:49 10° NNE visible
09 Jun ? 18:46:43 10° E 22:12:12 17° NNE 04:20:01 10° NNE visible
10 Jun ? 18:42:08 10° E 22:07:26 17° NNE 04:17:11 10° NNE visible
11 Jun ? 18:37:34 10° E 22:02:41 17° NNE 04:14:19 10° NNE visible
12 Jun ? 18:33:01 10° E 21:57:56 17° NNE 04:11:27 10° NNE visible
